Weather in Maranka

Russia / Tyumen Oblast     57°19′17″N   67°09′56″E
temp.,
°C
wind,
m/s
gust,
m/s
humid.,
%
clouds,
%
prec.,
mm/h
press.,
hPa
HPBL,
m
8 august, mon
mon823:00+17ne2273100 0.0 101712
02:00+16nne227998 0.0 101823
05:00+15nne228082 0.0 101822
08:00+20ne246695 0.0 1019303
11:00+24ne3550100 0.0 10181181
14:00+26ne3544100 0.0 10181618
17:00+26ne364632 0.0 10171889
20:00+21ene11738 0.0 101711
9 august, tue
tue923:00+18n11785 0.0 101711
02:00+17nne22830 0.0 101719
05:00+15ne23860 0.0 101852
08:00+21ne24650 0.0 1018297
11:00+25ne35490 0.0 10171345
14:00+28ne35400 0.0 10172005
17:00+27ene35414 0.0 10161949
20:00+21sw11665 0.0 101611
10 august, wed
wed1023:00+18ese11794 0.1 101611
02:00+16ese229015 0.1 101619
05:00+15n23915 0.1 101643
08:00+21n23728 0.0 1017298
11:00+25n335713 0.0 10161015
14:00+28nne23477 0.0 10161753
17:00+28nne234898 0.0 10152004
20:00+22nne2571100 0.1 1016118
11 august, thu
thu1123:00+21e4107896 0.1 1016351
02:00+19ene267646 0.0 1017244
05:00+15e26877 0.0 1017116
08:00+19ese34678 0.0 1017292
11:00+24ese33541 0.0 1016777
14:00+27sse23469 0.0 10151625
17:00+24s376396 0.0 1014251
20:00+22se387598 0.0 1012265
12 august, fri
fri1223:00+21s411767 0.2 1011359
02:00+17sw2399100 5.2 101178
05:00+17ssw2298100 6.1 101062
08:00+18wsw1295100 0.4 1009211
11:00+20wsw2287100 2.1 1008549
14:00+20w458562 3.4 1007768
17:00+18wnw47886 6.2 1006706
20:00+15wnw499584 3.7 1007481